Deptford, New Jersey, United States
Lat: 39.83N, Lon: 75.13W
Wx Zone: NJZ017
Local Info
Past Weather Observations for Tuesday, September 16, 2014

NOTE: This archive is for the closest National Weather Service station to Deptford. Information may differ from the station used for current weather conditions.

Click here for Long-term Archive

Time Weather Temperature Dewpoint Humidity Pressure Winds Precip Visibility
23:54
Partly Cloudy
61°F / 16°C 50°F / 10°C 68% 30.04 in
(1017 mb)
Calm - 10SM
22:54
Partly Cloudy
63°F / 17°C 50°F / 10°C 64% 30.04 in
(1017 mb)
N 5.8 mph
(N 9 kph)
- 10SM
21:54
Partly Cloudy
64°F / 18°C 50°F / 10°C 60% 30.04 in
(1017 mb)
NE 5.8 mph
(NE 9 kph)
- 10SM
20:54
Partly Cloudy
66°F / 19°C 50°F / 10°C 56% 30.04 in
(1017 mb)
N 9.2 mph
(N 15 kph)
- 10SM
19:54
Partly Cloudy
66°F / 19°C 52°F / 11°C 60% 30.04 in
(1017 mb)
N 9.2 mph
(N 15 kph)
- 10SM
18:54
Partly Cloudy
70°F / 21°C 52°F / 11°C 53% 30.01 in
(1016 mb)
N 8.1 mph
(N 13 kph)
- 10SM
17:54
Partly Cloudy
70°F / 21°C 52°F / 11°C 53% 30.01 in
(1016 mb)
N 9.2 mph
(N 15 kph)
- 10SM
16:54
Mostly Cloudy
72°F / 22°C 52°F / 11°C 50% 30.01 in
(1016 mb)
N 10.4 mph
(N 17 kph)
- 10SM
15:54
Mostly Cloudy
72°F / 22°C 52°F / 11°C 50% 29.98 in
(1015 mb)
NW 4.6 mph
(NW 7 kph)
- 10SM
14:54
Mostly Cloudy
73°F / 23°C 54°F / 12°C 50% 29.98 in
(1015 mb)
N 13.8 mph
(N 22 kph)
- 10SM
13:54
Mostly Cloudy
73°F / 23°C 54°F / 12°C 50% 29.98 in
(1015 mb)
N 9.2 mph
(N 15 kph)
- 10SM
12:54
Mostly Cloudy
72°F / 22°C 54°F / 12°C 53% 29.98 in
(1015 mb)
NW 8.1 mph
(NW 13 kph)
- 10SM
11:54
Partly Cloudy
73°F / 23°C 54°F / 12°C 50% 30.01 in
(1016 mb)
NNW 10.4 mph
(NNW 17 kph)
- 10SM
10:54
Partly Cloudy
72°F / 22°C 55°F / 13°C 57% 30.01 in
(1016 mb)
NNW 10.4 mph
(NNW 17 kph)
- 10SM
09:54
Partly Cloudy
70°F / 21°C 57°F / 14°C 64% 30.01 in
(1016 mb)
NNW 13.8 mph
(NNW 22 kph)
- 10SM
08:54
Partly Cloudy
66°F / 19°C 59°F / 15°C 78% 30.01 in
(1016 mb)
NW 10.4 mph
(NW 17 kph)
- 10SM
08:00
Mostly Cloudy
64°F / 18°C 61°F / 16°C 88% 30.01 in
(1016 mb)
W 8.1 mph
(W 13 kph)
- 10SM
07:54
Mostly Cloudy
64°F / 18°C 59°F / 15°C 83% 30.01 in
(1016 mb)
Variable 6.9 mph
(Variable 11 kph)
- 8SM
07:37
Mostly Cloudy
64°F / 18°C 61°F / 16°C 88% 30.01 in
(1016 mb)
NW 8.1 mph
(NW 13 kph)
- 7SM
07:31
Mostly Cloudy
64°F / 18°C 61°F / 16°C 88% 30.01 in
(1016 mb)
Variable 6.9 mph
(Variable 11 kph)
- 7SM
07:27
Mostly Cloudy
64°F / 18°C 61°F / 16°C 88% 30.01 in
(1016 mb)
NW 5.8 mph
(NW 9 kph)
- 7SM
06:54
Mostly Cloudy
64°F / 18°C 61°F / 16°C 88% 30.01 in
(1016 mb)
SW 3.5 mph
(SW 6 kph)
0.00 in
(0.00 mm)
10SM
06:25
Mostly Cloudy
63°F / 17°C 59°F / 15°C 88% 30.01 in
(1016 mb)
Calm 0.00 in
(0.00 mm)
10SM
06:19
Overcast
63°F / 17°C 57°F / 14°C 83% 30.01 in
(1016 mb)
Calm 0.00 in
(0.00 mm)
10SM
05:54
Overcast
Light Rain
63°F / 17°C 59°F / 15°C 88% 30.01 in
(1016 mb)
SSW 3.5 mph
(SSW 6 kph)
0.12 in
(3.05 mm)
7SM
05:45
Overcast
Rain
63°F / 17°C 57°F / 14°C 83% 30.01 in
(1016 mb)
SSW 3.5 mph
(SSW 6 kph)
0.12 in
(3.05 mm)
7SM
05:42
Overcast
Heavy Rain
63°F / 17°C 57°F / 14°C 83% 30.01 in
(1016 mb)
SW 3.5 mph
(SW 6 kph)
0.11 in
(2.79 mm)
5SM
05:31
Overcast
Light Rain
63°F / 17°C 57°F / 14°C 83% 30.01 in
(1016 mb)
Calm 0.09 in
(2.29 mm)
6SM
05:21
Overcast
Light Rain
61°F / 16°C 57°F / 14°C 88% 30.01 in
(1016 mb)
S 3.5 mph
(S 6 kph)
0.09 in
(2.29 mm)
7SM
05:14
Overcast
Light Rain
61°F / 16°C 57°F / 14°C 88% 30.01 in
(1016 mb)
SSE 4.6 mph
(SSE 7 kph)
0.09 in
(2.29 mm)
7SM
05:09
Overcast
Light Rain
61°F / 16°C 57°F / 14°C 88% 30.01 in
(1016 mb)
SSE 4.6 mph
(SSE 7 kph)
0.09 in
(2.29 mm)
5SM
05:00
Overcast
Rain
61°F / 16°C 57°F / 14°C 88% 30.01 in
(1016 mb)
SSE 3.5 mph
(SSE 6 kph)
0.05 in
(1.27 mm)
3SM
04:54
Overcast
Heavy Rain
61°F / 16°C 57°F / 14°C 88% 30.01 in
(1016 mb)
Calm 0.08 in
(2.03 mm)
4SM
04:52
Overcast
Heavy Rain
63°F / 17°C 57°F / 14°C 83% 30.01 in
(1016 mb)
Calm 0.06 in
(1.52 mm)
4SM
04:30
Overcast
Light Rain
63°F / 17°C 55°F / 13°C 77% 30.01 in
(1016 mb)
SE 3.5 mph
(SE 6 kph)
0.01 in
(0.25 mm)
6SM
04:23
Overcast
Light Rain
63°F / 17°C 55°F / 13°C 77% 30.01 in
(1016 mb)
SE 5.8 mph
(SE 9 kph)
0.00 in
(0.00 mm)
8SM
03:54
Overcast
63°F / 17°C 55°F / 13°C 77% 30.01 in
(1016 mb)
E 3.5 mph
(E 6 kph)
- 10SM
03:04
Overcast
63°F / 17°C 55°F / 13°C 77% 30.04 in
(1017 mb)
ESE 6.9 mph
(ESE 11 kph)
- 10SM
02:54
Partly Cloudy
63°F / 17°C 55°F / 13°C 77% 30.04 in
(1017 mb)
Calm - 10SM
01:54
Partly Cloudy
61°F / 16°C 54°F / 12°C 77% 30.04 in
(1017 mb)
SE 4.6 mph
(SE 7 kph)
- 10SM
00:54
Overcast
63°F / 17°C 54°F / 12°C 73% 30.06 in
(1018 mb)
SW 4.6 mph
(SW 7 kph)
- 10SM
Time Weather Temperature Dewpoint Humidity Pressure Winds Precip Visibility


Weather for websites

WeatherForYou.com, LLC is not responsible for any damages or problems caused by this service. Current weather conditions are obtained from the closest station including government and personal stations which may have varying degrees of accuracy. Weather forecasts are derived from the NOAA NDFD. Like all things, this site belongs to Jesus Christ... He just trusts me to maintain it. If you have any questions or comments email webmaster@weatherforyou.com

Copyright © 2014, WeatherForYou.com LLC. All rights reserved.